Weather in Yenurmino

Russia / Chukotka Autonomous Okrug     66°57′13″N   171°51′52″W
temp.,
°C
wind,
m/s
gust,
m/s
humid.,
%
clouds,
%
prec.,
mm/h
press.,
hPa
HPBL,
m
17 august, wed
wed1700:00+3n6888100 0.4 1017302
03:00+3n6888100 0.3 1017308
06:00+3n6887100 0.6 1016378
09:00+2n6883100 0.1 1016507
12:00+2n6882100 0.1 1015414
15:00+2n6881100 0.1 1014411
18:00+3n6880100 0.1 1014489
21:00+3n5882100 0.1 1013449
18 august, thu
thu1800:00+3n6883100 0.2 1012410
03:00+3n71086100 0.1 1011415
06:00+3n81188100 0.4 1010438
09:00+3n91187100 0.2 1010462
12:00+3n91287100 0.3 1009463
15:00+3nnw91288100 0.1 1009415
18:00+3nnw91292100 0.4 1010405
21:00+3nnw91298100 0.9 1010383
19 august, fri
fri1900:00+3nnw81296100 2.6 1011340
03:00+3nnw81297100 1.4 1011275
06:00+3nnw91397100 3.9 1012317
09:00+4n91398100 1.6 1012273
12:00+3n6998100 2.8 1012166
15:00+3n4598100 0.6 101376
18:00+3ne3398100 0.9 101340
21:00+2e229890 0.0 101573
20 august, sat
sat2000:00+2sse239997 0.1 101563
03:00+2se3399100 0.1 101648
06:00+2ese339868 0.1 101761
09:00+3e2296100 0.0 101751
12:00+3ne3395100 0.0 101759
15:00+4nne339599 0.0 101755
18:00+4nne2396100 0.0 101740
21:00+3nne339839 0.0 101825
21 august, sun
sun2100:00+3nne3497100 0.0 101840
03:00+3nne4492100 0.1 101860
06:00+3n5796100 0.3 1019135
09:00+3nnw6897100 0.2 1019160
12:00+4n6997100 0.3 1019134
15:00+3n579795 0.0 1019100
18:00+3n469663 0.0 102085
21:00+3n469640 0.0 1021106